Theta_e
318 318 318 317 317 318 319 319 319 320 318 316 315 315 316 315 314 314 312 312 312 313 314 318 321 321 321 321 319 319 323 323 323 323 324 325 325 325 325 324 324 323 323 325
319 320 318 318 318 318 317 318 318 317 317 315 317 316 314 315 315 314 312 312 312 313 313 316 320 322 321 319 321 317 321 321 322 324 324 325 326 325 325 324 325 324 325 325
320 321 319 319 319 320 319 319 318 318 317 315 315 315 315 315 315 315 312 312 312 312 313 314 317 319 321 318 318 320 316 316 317 325 325 325 326 326 325 322 326 327 324 325
319 319 320 320 321 319 320 318 319 319 318 318 315 317 315 316 316 317 312 311 312 311 313 313 315 316 321 321 318 317 317 318 319 325 326 326 326 326 326 326 326 327 327 327
323 319 320 320 320 318 320 319 318 318 317 316 317 315 316 319 320 317 315 311 311 310 312 314 314 316 321 322 319 319 320 319 320 326 325 325 325 326 327 325 326 325 326 326
321 318 319 320 319 318 319 318 315 315 314 316 315 316 316 317 319 318 317 312 311 310 311 313 316 316 318 323 320 320 323 319 322 325 324 321 321 321 326 327 326 324 325 325
320 319 319 319 320 316 316 314 317 317 318 320 317 318 317 318 317 318 319 313 311 311 311 313 313 314 316 322 320 320 323 320 320 324 325 321 321 322 323 325 327 327 328 327
321 323 319 318 319 319 314 314 316 318 316 315 319 322 320 319 321 320 318 314 311 311 311 313 313 315 317 319 323 321 321 321 318 322 324 319 319 320 320 323 329 329 328 328
321 321 319 318 318 318 317 315 314 315 317 319 319 321 323 325 324 320 315 313 312 311 310 313 314 315 317 318 322 323 323 321 319 319 320 320 319 318 319 320 326 328 328 328
319 321 319 319 317 316 317 315 317 313 319 320 319 323 325 322 325 323 318 313 312 311 310 312 313 315 317 318 319 322 323 320 319 319 318 319 319 318 318 319 321 327 326 324
316 319 320 319 320 318 318 319 319 314 315 317 318 322 320 325 327 327 321 314 312 312 312 312 313 316 317 317 319 320 324 321 319 318 319 319 319 317 318 320 319 322 322 322
316 317 320 324 322 322 318 318 320 319 319 320 319 321 321 326 328 328 324 314 312 312 312 312 313 315 316 316 318 320 323 319 317 317 318 319 319 318 317 320 319 321 321 320
315 315 317 317 327 327 327 326 321 321 321 327 327 322 322 327 326 325 323 314 312 312 312 311 311 312 315 316 319 320 322 319 315 314 316 316 318 318 317 319 320 320 321 320
318 314 317 321 319 327 329 331 326 323 325 325 328 326 326 327 329 326 320 314 312 312 313 313 312 312 314 317 319 320 322 319 317 317 317 317 315 317 317 318 320 320 321 320
315 316 317 317 317 323 322 326 328 325 323 325 324 328 325 324 327 327 318 313 312 312 313 314 314 313 314 316 318 320 321 320 319 319 318 318 316 315 316 317 319 320 319 320
316 318 316 318 318 318 320 322 328 326 324 327 324 326 324 325 327 328 321 315 314 314 314 314 314 314 314 316 318 320 320 319 320 320 319 318 315 315 315 316 317 319 318 320
315 321 320 319 324 323 324 321 327 327 325 324 327 324 324 328 328 327 325 316 315 315 315 314 315 315 316 317 318 319 320 319 320 320 319 318 315 315 316 316 315 317 318 318
316 321 323 329 328 328 324 322 324 326 326 323 324 324 324 323 323 324 323 318 316 315 315 315 315 315 316 317 318 319 319 319 319 319 319 318 314 315 315 315 314 314 316 317
317 322 327 330 325 327 328 327 326 327 327 324 325 323 323 323 325 324 324 321 319 316 315 315 315 316 316 317 319 319 318 318 317 318 320 319 315 314 314 315 315 313 313 314
322 322 325 321 329 333 326 326 325 324 328 324 325 323 323 323 326 326 322 322 321 318 316 315 315 316 316 317 318 318 316 316 316 317 320 319 318 313 314 315 315 313 312 312
324 323 328 321 322 324 323 325 323 330 327 324 324 323 322 325 325 323 322 323 321 321 316 315 315 316 316 317 318 316 315 315 317 316 319 319 320 315 312 315 315 314 314 313
326 324 325 319 324 328 322 325 329 325 322 323 323 322 323 324 322 322 321 322 323 320 317 315 315 316 316 316 317 316 314 318 317 316 318 319 320 317 314 313 314 314 313 312
327 323 325 323 324 319 324 324 322 319 323 323 321 320 322 323 321 321 321 321 320 319 317 315 315 316 316 316 317 317 316 317 317 316 317 318 319 319 316 314 313 314 313 312
324 320 323 323 322 322 323 322 321 320 322 324 322 322 321 322 322 322 321 321 320 320 319 316 315 315 315 316 317 317 317 317 317 317 317 318 319 320 318 317 312 313 313 313
321 321 321 322 321 321 321 322 320 321 321 324 323 322 322 322 324 323 323 322 321 319 321 318 315 316 315 316 317 317 317 317 316 317 318 318 319 319 319 319 316 313 313 314
320 321 324 323 318 321 321 321 320 322 323 323 324 325 324 322 323 324 322 320 321 321 319 319 316 316 316 316 317 317 317 317 317 317 317 318 319 320 320 320 320 318 315 315
Wind_Speed
5 4 8 9 6 5 4 3 5 4 5 5 7 10 16 6 6 8 9 9 8 8 7 9 8 5 2 2 4 8 9 12 13 10 9 8 11 10 11 8 7 3 4 8
4 12 7 7 4 4 3 3 5 6 3 6 8 10 9 7 9 11 13 9 9 6 6 8 9 6 3 3 2 3 5 10 14 12 8 7 12 10 10 9 10 9 10 15
8 4 7 7 5 4 5 3 5 7 1 3 1 7 5 5 3 4 6 7 6 10 9 7 9 7 5 2 2 3 4 8 10 12 9 9 8 10 11 8 13 15 18 14
7 5 8 5 5 7 4 8 6 4 2 4 4 5 6 5 6 7 8 10 11 9 6 6 9 8 9 2 3 3 3 7 7 9 11 11 11 12 10 10 9 18 19 18
10 8 6 5 9 7 10 4 6 3 4 2 2 2 7 2 7 10 12 12 11 11 10 9 11 13 10 5 3 1 4 6 3 7 10 13 12 14 9 10 11 12 13 15
10 5 10 12 8 9 3 3 6 4 4 1 7 7 5 5 8 7 4 11 12 12 9 8 17 12 9 9 4 3 2 3 4 5 7 9 8 10 13 11 12 10 5 5
4 5 4 5 5 3 5 6 4 4 3 5 3 3 8 9 9 9 8 13 14 12 10 8 8 11 11 12 9 5 3 2 3 4 2 6 8 9 11 10 13 8 5 5
9 9 10 4 8 10 7 9 5 6 3 5 3 5 6 6 5 8 6 10 13 12 10 9 11 16 15 13 13 8 4 4 4 5 5 5 7 8 10 10 11 11 11 17
8 8 3 7 5 11 5 4 6 4 1 2 3 7 10 3 5 5 7 11 14 13 10 10 12 18 16 15 14 12 7 5 5 6 7 6 5 6 9 10 12 11 14 14
7 3 6 7 5 1 9 7 2 2 2 4 4 4 6 8 5 4 6 8 11 9 9 8 10 19 18 17 13 10 11 7 7 7 7 6 4 4 7 9 9 13 11 7
6 6 4 6 7 9 3 3 5 4 4 5 3 6 6 4 9 8 9 10 13 15 13 10 11 22 20 16 15 11 13 10 9 8 8 7 5 5 5 9 10 10 8 9
8 7 6 8 2 5 7 10 9 5 5 3 4 7 5 6 9 6 6 8 7 9 13 10 14 20 18 16 16 14 16 12 10 8 9 7 7 5 6 8 11 11 15 15
8 3 3 5 3 1 4 5 5 5 4 7 5 6 4 4 3 3 7 9 8 9 8 7 8 13 19 18 17 16 18 15 12 10 9 8 8 7 7 7 10 11 13 15
13 6 10 16 6 6 5 5 6 7 5 5 6 4 5 3 4 1 5 8 9 9 11 10 9 10 19 21 20 17 20 18 15 12 10 10 9 9 8 9 9 8 10 12
6 8 6 5 10 11 14 9 12 10 9 8 8 9 8 5 5 4 8 8 10 10 11 14 13 10 18 22 22 19 21 21 18 15 13 10 8 10 10 10 10 10 10 13
2 4 8 7 10 13 11 17 16 17 3 1 6 5 7 5 5 4 8 12 14 15 16 15 12 13 18 22 27 23 22 22 20 18 17 13 11 11 11 10 11 12 12 12
1 4 4 5 5 6 17 16 14 10 5 10 8 10 7 6 8 8 7 12 14 15 15 15 17 17 23 27 31 28 25 21 21 21 19 16 14 14 12 12 12 13 13 13
2 4 2 3 6 9 5 11 17 19 12 8 4 8 12 9 9 5 9 11 13 14 16 16 15 20 25 30 32 30 25 23 22 21 21 18 18 17 15 15 15 15 15 14
8 5 2 5 4 4 1 5 9 9 12 15 13 5 6 3 2 6 7 9 15 18 17 22 29 27 25 31 37 32 27 26 24 23 23 21 19 19 17 17 17 17 17 17
6 4 5 3 7 10 6 6 5 5 8 10 14 9 9 7 4 9 6 7 10 10 21 24 28 26 28 32 36 34 31 29 28 26 26 24 21 21 20 19 18 17 16 14
5 3 13 2 5 6 5 9 7 8 7 8 15 14 8 7 15 3 6 4 7 14 21 24 28 32 38 37 38 32 32 32 34 29 28 27 24 23 22 20 19 17 15 14
8 7 5 2 3 9 5 5 12 7 3 6 8 9 13 16 5 8 8 5 5 9 18 28 26 28 32 37 38 31 30 40 36 33 31 30 27 26 24 23 21 19 18 17
10 7 7 10 6 4 13 10 13 7 6 6 8 6 11 13 10 9 7 8 6 11 18 26 26 27 31 37 40 32 38 39 37 35 34 33 30 29 27 26 25 22 21 20
3 3 4 4 6 6 13 4 5 5 6 4 5 7 9 8 6 6 5 5 7 9 14 23 24 25 28 36 40 41 38 42 41 37 36 36 34 33 32 30 30 29 27 26
7 8 7 3 2 4 4 9 6 6 3 6 6 6 10 7 5 6 5 6 4 7 12 21 25 27 30 35 39 36 39 44 38 38 35 35 36 37 36 36 35 35 34 34
4 6 8 8 8 7 8 15 9 10 8 7 8 6 5 7 7 4 6 6 5 4 10 18 22 25 28 34 33 34 38 45 41 34 34 34 32 34 33 34 35 38 38 38
Wind_Direction
162 142 203 202 199 183 195 196 247 266 242 178 235 252 273 206 208 188 186 181 190 202 210 200 200 207 281 336 353 19 26 11 359 350 357 1 3 2 33 36 43 332 181 159
83 219 188 197 164 173 160 222 264 274 278 163 271 271 263 187 224 204 190 185 188 188 182 200 202 201 244 2 308 1 6 1 1 4 360 1 355 9 46 61 59 70 104 140
185 182 162 169 196 174 198 173 233 239 320 239 151 307 301 269 242 179 185 179 167 187 184 198 199 205 217 35 15 356 349 342 351 9 23 21 40 55 81 61 68 59 101 105
207 193 172 168 196 166 254 217 229 267 47 271 133 271 286 284 278 228 195 184 182 184 182 195 191 199 206 152 63 46 2 343 350 29 47 64 42 64 74 82 75 77 82 78
213 155 175 173 211 163 232 144 196 227 205 109 270 73 262 352 284 259 215 194 184 180 179 192 192 202 199 191 118 95 20 28 61 76 69 64 56 68 71 67 79 79 79 76
202 191 165 197 213 175 166 107 49 55 97 60 235 160 278 221 217 260 180 187 185 174 185 196 194 199 196 193 162 136 49 41 116 102 72 58 49 65 80 68 76 50 24 37
168 186 191 144 152 89 96 71 338 338 6 223 108 101 235 255 244 231 229 190 174 170 176 187 183 199 197 194 185 170 113 105 136 187 122 71 64 58 64 73 105 122 145 193
180 227 170 178 170 183 181 155 158 230 231 260 138 230 250 229 308 283 222 176 157 164 179 183 187 198 197 201 201 198 165 155 156 149 137 106 87 77 72 75 89 96 128 138
174 227 138 166 156 148 177 153 197 138 154 61 243 287 311 268 7 19 106 141 169 168 178 184 189 199 200 205 205 206 197 182 173 170 158 142 124 89 78 89 97 96 111 143
194 182 207 200 94 18 166 161 112 18 194 228 277 286 240 300 304 174 163 180 174 162 177 184 190 200 206 209 208 202 205 201 190 174 166 159 146 133 82 91 116 124 125 121
134 135 269 110 178 169 124 162 58 124 148 187 235 257 218 224 251 233 195 192 183 177 182 183 194 201 209 212 206 203 200 204 205 191 175 165 156 150 113 97 111 116 107 103
185 152 193 199 198 172 208 189 171 163 229 208 185 261 242 262 272 209 168 189 179 196 181 176 191 194 205 211 199 201 198 198 204 197 183 176 162 157 152 111 110 114 118 106
170 199 150 328 5 329 168 178 148 120 95 189 186 262 177 255 269 202 173 170 169 174 180 168 180 186 200 206 198 196 196 195 191 189 186 177 177 173 162 141 117 120 122 116
155 158 189 221 209 159 183 179 183 156 141 185 217 210 261 185 58 287 152 164 167 181 187 180 187 193 204 203 201 197 196 196 192 192 191 185 183 183 173 168 147 129 138 131
142 205 182 198 203 191 212 196 180 191 195 175 215 207 229 180 180 209 172 148 159 169 198 196 191 193 203 203 205 203 196 196 197 198 200 195 184 184 180 173 165 161 146 143
7 222 175 217 207 195 215 217 194 208 152 107 155 231 206 173 163 223 163 166 182 188 197 208 198 183 191 203 204 204 197 195 197 200 200 193 184 179 182 180 176 168 163 155
336 136 103 227 182 127 245 208 193 204 190 171 198 214 155 179 195 215 209 182 194 193 189 204 197 194 194 196 206 204 200 197 196 196 194 190 185 178 180 185 182 179 175 172
216 108 104 158 112 208 278 203 187 199 204 194 179 179 182 199 212 195 192 180 194 189 190 194 204 198 196 199 206 205 200 196 195 198 193 186 183 181 180 180 181 182 184 186
180 137 168 152 211 299 235 153 145 159 227 197 205 154 188 150 62 277 180 186 200 196 190 196 197 200 190 195 202 202 195 195 196 202 200 193 186 184 184 187 188 188 189 190
141 198 170 175 178 219 191 199 137 76 246 196 196 192 164 131 188 234 158 191 201 186 194 187 191 188 186 195 200 195 193 194 197 202 205 203 195 191 190 192 190 191 194 199
145 136 209 174 228 275 248 149 133 153 233 181 187 197 154 185 216 208 152 181 197 187 183 185 176 182 193 189 193 188 189 192 204 203 205 206 204 201 199 196 199 200 201 206
162 151 190 123 190 245 168 115 161 198 211 192 184 183 184 210 207 205 188 209 202 175 174 176 179 186 185 188 187 190 188 200 204 203 203 205 206 206 205 205 203 204 206 211
193 184 186 189 203 228 180 172 209 165 161 194 179 173 198 205 205 210 212 205 188 199 177 180 177 178 183 188 190 191 198 197 199 201 203 206 206 207 210 208 209 209 212 218
238 157 152 130 207 202 192 219 140 159 159 144 169 174 177 208 199 223 239 199 184 206 185 180 173 180 186 189 194 199 191 196 194 193 200 206 207 207 212 212 214 214 214 219
202 152 174 228 314 45 285 213 164 155 188 146 145 176 204 174 212 226 233 240 236 225 208 182 185 187 193 190 198 193 191 190 190 190 194 199 205 208 210 215 216 218 223 221
213 176 184 221 175 161 205 212 185 166 185 178 163 171 190 186 215 196 241 242 210 208 207 198 202 195 191 192 196 192 190 190 188 188 189 196 197 203 204 208 217 226 229 230